Akron Canton, OH

3:13 PM EST on November 17, 2017 (GMT -0500)
Akron-Canton Regional

Weather History for KCAK - March, 2013

Change the Weather History Date:

Monday, March 11, 2013

  Actual Average Record
Temperature  
Mean Temperature 50 °F 36 °F  
Max Temperature 58 °F 44 °F 72 °F (1977)
Min Temperature 42 °F 27 °F -1 °F (1960)
Degree Days  
Heating Degree Days 15 29  
Month to date heating degree days 330 341  
Since 1 July heating degree days 4591 4885  
Cooling Degree Days 0 0  
Month to date cooling degree days 0 0  
Year to date cooling degree days 0 0  
Growing Degree Days 1 (Base 50)    
Moisture  
Dew Point 41 °F    
Average Humidity 67    
Maximum Humidity 93    
Minimum Humidity 40    
Precipitation  
Precipitation 0.49 in 0.09 in 0.75 in (1955)
Month to date precipitation 0.78 0.96  
Year to date precipitation 4.97 5.88  
Snow  
Snow 0.00 in 0.40 in - ()
Month to date snowfall 3.4 3.7  
Since 1 July snowfall 39.8 40.2  
Snow Depth 0.00 in    
Sea Level Pressure  
Sea Level Pressure 29.77 in    
Wind  
Wind Speed 14 mph (SSW)    
Max Wind Speed 26 mph    
Max Gust Speed 36 mph    
Visibility 7 miles    
Events Rain    
T = Trace of Precipitation, MM = Missing Value Source: NWS Daily Summary

Daily Weather History Graph

Daily Weather History Graph

Search for Another Location

Airport or City:

Trip Planner

Search our weather history database for the weather conditions in past years. The results will help you decide how hot, cold, wet, or windy it might be!

Date:

Astronomy

Mar. 11, 2013 Rise Set
Actual Time 7:43 AM EDT 7:28 PM EDT
Civil Twilight 7:16 AM EDT 7:55 PM EDT
Nautical Twilight 6:44 AM EDT 8:27 PM EDT
Astronomical Twilight 6:12 AM EDT 8:59 PM EDT
Moon 7:16 AM EDT (3/11) 7:39 PM EDT (3/11)
Length of Visible Light 12h 39m
Length of Day
11h 44m
Waning Crescent, 0% of the Moon is Illuminated
Mar 11
Waning Crescent
Mar 11
New
Mar 19
First Quarter
Mar 27
Full
Apr 3
Last Quarter

Hourly Weather History & Observations

Time (EDT) Temp. Windchill Dew Point Humidity Pressure Visibility Wind Dir Wind Speed Gust Speed Precip Events Conditions
12:51 AM 57.0 °F - 35.1 °F 44% 29.90 in 10.0 mi South 12.7 mph - N/A   Overcast
1:51 AM 57.0 °F - 35.1 °F 44% 29.88 in 10.0 mi South 12.7 mph - N/A   Overcast
2:51 AM 57.0 °F - 35.1 °F 44% 29.88 in 10.0 mi South 12.7 mph - N/A   Overcast
3:51 AM 57.0 °F - 34.0 °F 42% 29.86 in 10.0 mi South 16.1 mph - N/A   Overcast
4:51 AM 55.9 °F - 34.0 °F 44% 29.84 in 10.0 mi South 12.7 mph - N/A   Mostly Cloudy
5:51 AM 55.4 °F - 33.8 °F 44% 29.86 in 10.0 mi South 13.8 mph - N/A   Mostly Cloudy
6:51 AM 55.0 °F - 35.1 °F 47% 29.88 in 10.0 mi SW 10.4 mph - 0.00 in Rain Light Rain
7:51 AM 51.1 °F - 39.0 °F 63% 29.88 in 10.0 mi SSW 6.9 mph - 0.00 in Rain Light Rain
8:51 AM 52.0 °F - 39.0 °F 61% 29.89 in 10.0 mi South 8.1 mph - 0.00 in   Overcast
9:51 AM 53.1 °F - 36.0 °F 52% 29.86 in 10.0 mi SSE 11.5 mph - N/A   Overcast
10:51 AM 55.0 °F - 35.1 °F 47% 29.83 in 10.0 mi SSE 12.7 mph - N/A   Overcast
11:51 AM 55.9 °F - 36.0 °F 47% 29.80 in 8.0 mi South 15.0 mph - 0.00 in Rain Light Rain
12:51 PM 54.0 °F - 41.0 °F 62% 29.78 in 8.0 mi South 12.7 mph - 0.01 in Rain Light Rain
1:51 PM 54.0 °F - 42.1 °F 64% 29.75 in 6.0 mi South 15.0 mph - 0.03 in Rain Light Rain
2:51 PM 54.0 °F - 45.0 °F 72% 29.70 in 4.0 mi South 23.0 mph 29.9 mph 0.02 in Rain Light Rain
3:51 PM 53.1 °F - 46.9 °F 80% 29.67 in 6.0 mi South 20.7 mph 29.9 mph 0.02 in Rain Light Rain
4:51 PM 54.0 °F - 46.9 °F 77% 29.63 in 8.0 mi South 19.6 mph 26.5 mph 0.01 in Rain Light Rain
5:51 PM 54.0 °F - 46.9 °F 77% 29.61 in 9.0 mi South 17.3 mph - 0.00 in Rain Light Rain
6:51 PM 53.1 °F - 46.9 °F 80% 29.62 in 6.0 mi South 19.6 mph - 0.02 in Rain Light Rain
7:47 PM 51.8 °F - 48.2 °F 88% 29.65 in 4.0 mi West 18.4 mph 27.6 mph 0.04 in Rain Rain
7:51 PM 51.1 °F - 46.9 °F 86% 29.66 in 2.0 mi West 20.7 mph 28.8 mph 0.06 in Rain Heavy Rain
7:59 PM 48.2 °F - 46.4 °F 93% 29.66 in 2.0 mi West 16.1 mph 28.8 mph 0.11 in Rain Heavy Rain
8:06 PM 48.2 °F - 46.4 °F 93% 29.67 in 3.0 mi West 16.1 mph - 0.14 in Rain Rain
8:51 PM 46.9 °F - 44.1 °F 90% 29.70 in 3.0 mi WSW 13.8 mph 20.7 mph 0.21 in Rain Light Rain
9:51 PM 46.9 °F - 44.1 °F 90% 29.72 in 6.0 mi SW 9.2 mph - 0.09 in Rain Light Rain
10:01 PM 46.4 °F 42.4 °F 44.6 °F 93% 29.72 in 5.0 mi SW 8.1 mph - 0.00 in Rain Light Rain
10:51 PM 45.0 °F 38.5 °F 39.9 °F 82% 29.75 in 7.0 mi West 13.8 mph - 0.02 in Rain Light Rain
11:51 PM 43.0 °F 36.8 °F 37.0 °F 80% 29.75 in 9.0 mi West 11.5 mph - 0.00 in   Overcast